Location: Beaver Pond
(44.0424°N, 71.7933°W)
Time: 08:07:06
(UTC+00:00)

Cosmos 2082 Rocket - Pass Details

Date: 13 April 2024
Orbit: 831 x 854 km, 71.0° (Epoch: 25 May)

Event Time Altitude Azimuth Distance (km) Brightness Sun altitude
Rises 23:46:24 0° 327° (NNW) 3,433 6.2 -3.7°
Reaches altitude 10° 23:49:00 10° 320° (NW) 2,492 5.7 -4.2°
Maximum altitude 23:54:14 38° 254° (WSW) 1,283 3.8 -5.1°
Drops below altitude 10° 23:59:25 10° 188° (S) 2,469 4.5 -6.0°
Sets 00:02:00 0° 181° (S) 3,397 5.1 -6.4°
